Hagerstown, MD

2:51 PM EDT on May 29, 2017 (GMT -0400)
Hagerstown Regional-Henson

Weather History for KHGR - September, 2014

Change the Weather History Date:

Tuesday, September 16, 2014

  Actual Average Record
Temperature  
Mean Temperature 65 °F 66 °F  
Max Temperature 73 °F 75 °F 89 °F (1998)
Min Temperature 57 °F 56 °F 44 °F (2001)
Degree Days  
Heating Degree Days 0 2  
Month to date heating degree days 19 14  
Since 1 July heating degree days 21 19  
Cooling Degree Days 0 3  
Month to date cooling degree days 102 69  
Year to date cooling degree days 915 937  
Growing Degree Days 15 (Base 50)    
Moisture  
Dew Point 52 °F    
Average Humidity 64    
Maximum Humidity 86    
Minimum Humidity 41    
Precipitation  
Precipitation T in 0.14 in 1.47 in (1999)
Month to date precipitation 1.17 1.72  
Year to date precipitation 28.08 28.35  
Sea Level Pressure  
Sea Level Pressure 30.06 in    
Wind  
Wind Speed 7 mph (NW)    
Max Wind Speed 17 mph    
Max Gust Speed 22 mph    
Visibility 10 miles    
Events      
T = Trace of Precipitation, MM = Missing Value Source: NWS Daily Summary

Daily Weather History Graph

Daily Weather History Graph

Search for Another Location

Airport or City:

Trip Planner

Search our weather history database for the weather conditions in past years. The results will help you decide how hot, cold, wet, or windy it might be!

Date:

Astronomy

Sep. 16, 2014 Rise Set
Actual Time 6:52 AM EDT 7:17 PM EDT
Civil Twilight 6:25 AM EDT 7:44 PM EDT
Nautical Twilight 5:54 AM EDT 8:16 PM EDT
Astronomical Twilight 5:21 AM EDT 8:49 PM EDT
Moon 12:01 AM EDT (9/16) 2:39 PM EDT (9/16)
Length of Visible Light 13h 19m
Length of Day
12h 24m
Last Quarter, 44% of the Moon is Illuminated
Sep 16
Last Quarter
Sep 24
New
Oct 1
First Quarter
Oct 8
Full
Oct 15
Last Quarter

Hourly Weather History & Observations

Time (EDT) Temp. Dew Point Humidity Pressure Visibility Wind Dir Wind Speed Gust Speed Precip Events Conditions
1:53 AM 61.0 °F 54.0 °F 78% 30.05 in 10.0 mi Calm Calm - N/A   Mostly Cloudy
2:53 AM 57.9 °F 53.1 °F 84% 30.04 in 10.0 mi NNW 3.5 mph - N/A   Partly Cloudy
3:53 AM 60.1 °F 54.0 °F 80% 30.04 in 10.0 mi Calm Calm - N/A   Overcast
4:53 AM 59.0 °F 54.0 °F 83% 30.04 in 9.0 mi Calm Calm - N/A   Scattered Clouds
5:53 AM 59.0 °F 54.0 °F 83% 30.04 in 9.0 mi Calm Calm - N/A   Overcast
6:53 AM 60.1 °F 53.1 °F 78% 30.04 in 10.0 mi SW 3.5 mph - 0.00 in   Overcast
7:53 AM 60.1 °F 54.0 °F 80% 30.07 in 10.0 mi West 3.5 mph - N/A   Mostly Cloudy
8:53 AM 64.0 °F 53.1 °F 67% 30.08 in 10.0 mi West 6.9 mph - N/A   Clear
9:53 AM 64.9 °F 53.1 °F 65% 30.09 in 10.0 mi NW 8.1 mph - N/A   Overcast
10:53 AM 66.9 °F 52.0 °F 59% 30.09 in 10.0 mi WNW 9.2 mph - N/A   Partly Cloudy
11:53 AM 69.1 °F 52.0 °F 54% 30.08 in 10.0 mi WNW 11.5 mph - N/A   Partly Cloudy
12:53 PM 70.0 °F 52.0 °F 53% 30.06 in 10.0 mi North 11.5 mph - N/A   Scattered Clouds
1:53 PM 71.1 °F 50.0 °F 47% 30.05 in 10.0 mi NW 15.0 mph - N/A   Mostly Cloudy
2:53 PM 69.1 °F 50.0 °F 51% 30.04 in 10.0 mi North 12.7 mph - N/A   Mostly Cloudy
3:00 PM 69.1 °F 50.0 °F 51% 30.02 in 10.0 mi North 10.4 mph - N/A   Mostly Cloudy
3:53 PM 73.0 °F 48.9 °F 42% 30.04 in 10.0 mi NNW 11.5 mph - N/A   Mostly Cloudy
4:53 PM 70.0 °F 48.0 °F 46% 30.04 in 10.0 mi NNW 13.8 mph - N/A   Mostly Cloudy
5:53 PM 69.1 °F 48.9 °F 49% 30.05 in 10.0 mi NW 5.8 mph - N/A   Mostly Cloudy
6:53 PM 66.9 °F 50.0 °F 54% 30.05 in 10.0 mi NNE 6.9 mph - N/A   Mostly Cloudy
7:53 PM 64.9 °F 50.0 °F 58% 30.06 in 10.0 mi WNW 5.8 mph - N/A   Overcast
8:53 PM 64.9 °F 50.0 °F 58% 30.07 in 10.0 mi North 5.8 mph - N/A   Overcast
10:53 PM 59.0 °F 50.0 °F 72% 30.08 in 10.0 mi NNW 4.6 mph - N/A   Clear